AS855 Weather Reports


time (UTC)temp
C
wind
direction
speed
KPH
gust
KPH
rain 1hr
cm
rain 24hr
cm
rain mn
cm
humidity
%
barometer
mb
20260505101516 10 113 4.8 8.0 0.00 0.30 0.08 68 1011.0
20260505100516 10 158 4.8 6.4 0.00 0.30 0.08 70 1011.0
20260505095536 10 113 4.8 9.7 0.00 0.30 0.08 72 1011.1
20260505094516 10 68 6.4 11.3 0.00 0.30 0.08 72 1010.5
20260505093515 10 90 9.7 20.9 0.03 0.30 0.08 71 1010.7
20260505092516 10 90 3.2 4.8 0.03 0.30 0.08 72 1010.6
20260505091515 10 135 4.8 8.0 0.03 0.30 0.08 72 1010.5
20260505090515 10 158 6.4 9.7 0.03 0.30 0.08 71 1010.4
20260505085516 10 135 9.7 16.1 0.03 0.30 0.08 69 1010.9
20260505084540 11 68 6.4 16.1 0.03 0.30 0.08 61 1011.0
20260505083518 11 203 11.3 17.7 0.00 0.28 0.05 64 1011.1
20260505082538 11 135 8.0 14.5 0.00 0.28 0.05 61 1011.5
20260505081519 11 135 6.4 11.3 0.00 0.28 0.05 59 1010.8
20260505080518 11 158 9.7 16.1 0.00 0.28 0.05 61 1010.8
20260505075538 11 135 8.0 16.1 0.00 0.28 0.05 63 1010.9
20260505074517 11 135 6.4 12.9 0.00 0.28 0.05 61 1010.6
20260505073521 11 135 11.3 24.1 0.00 0.28 0.05 59 1011.0
20260505072518 10 113 9.7 16.1 0.05 0.28 0.05 64 1010.7
20260505071517 10 113 14.5 20.9 0.05 0.28 0.05 68 1010.5
20260505070517 10 113 11.3 14.5 0.05 0.28 0.05 72 1010.6
20260505065519 11 113 9.7 16.1 0.05 0.28 0.05 63 1010.8
20260505064519 11 0 8.0 22.5 0.05 0.28 0.05 62 1010.6
20260505063517 11 90 12.9 32.2 0.05 0.28 0.05 59 1010.5
20260505062537 10 158 6.4 16.1 0.03 0.23 0.00 70 1010.3
20260505061538 10 225 4.8 9.7 0.05 0.23 0.00 73 1010.3
20260505060518 10 135 9.7 19.3 0.05 0.23 0.00 73 1010.1
20260505055516 10 203 9.7 17.7 0.08 0.23 0.23 76 1010.3
20260505054516 10 203 12.9 20.9 0.10 0.23 0.23 76 1010.3
20260505053516 10 180 11.3 20.9 0.13 0.23 0.23 76 1010.4
20260505052536 10 158 6.4 14.5 0.10 0.20 0.20 73 1010.4
20260505051516 10 203 9.7 17.7 0.10 0.18 0.18 77 1010.7
20260505050516 10 203 16.1 24.1 0.10 0.18 0.18 79 1010.6
20260505041516 11 203 19.3 32.2 0.00 0.08 0.08 67 1010.5
20260505040516 11 203 20.9 37.0 0.00 0.08 0.08 67 1010.1
20260505035542 11 203 24.1 46.7 0.00 0.08 0.08 66 1009.7
20260505034518 12 203 20.9 37.0 0.00 0.08 0.08 63 1009.4
20260505033538 13 203 24.1 37.0 0.00 0.08 0.08 59 1009.5
20260505032520 13 203 19.3 30.6 0.00 0.08 0.08 55 1009.2
20260505031517 13 225 20.9 30.6 0.00 0.08 0.08 60 1008.8
20260505030521 13 225 17.7 30.6 0.00 0.08 0.08 61 1008.7
20260505025518 13 225 12.9 20.9 0.00 0.08 0.08 58 1008.7
20260505024520 13 203 14.5 22.5 0.00 0.08 0.08 57 1008.9
20260505023517 13 225 11.3 16.1 0.00 0.08 0.08 57 1008.9
20260505022520 13 203 11.3 22.5 0.00 0.08 0.08 56 1008.8
20260505021517 14 225 14.5 24.1 0.00 0.08 0.08 55 1008.6
20260505020520 14 180 3.2 6.4 0.00 0.08 0.08 51 1008.7
20260505015517 14 203 11.3 16.1 0.00 0.08 0.08 53 1008.3
20260505014517 14 203 11.3 16.1 0.00 0.08 0.08 54 1007.7
20260505013518 14 203 8.0 14.5 0.00 0.08 0.08 55 1007.7
20260505012522 15 113 1.6 4.8 0.00 0.08 0.08 56 1007.9
20260505011517 14 113 3.2 9.7 0.00 0.08 0.08 58 1007.8
20260505010521 14 90 3.2 6.4 0.00 0.08 0.08 56 1007.9
20260505005517 15 90 4.8 9.7 0.00 0.08 0.08 54 1007.9
20260505004517 15 45 3.2 8.0 0.00 0.08 0.08 53 1008.2
20260505003638 15 68 6.4 17.7 0.00 0.08 0.08 52 1008.1
20260505002517 15 90 3.2 9.7 0.00 0.08 0.08 54 1008.0
20260505001518 15 68 3.2 8.0 0.00 0.08 0.08 53 1007.9
20260505000537 16 23 3.2 9.7 0.00 0.08 0.08 51 1008.1
20260504235517 16 0 8.0 17.7 0.00 0.08 0.08 49 1007.9
20260504234517 16 0 9.7 19.3 0.03 0.08 0.08 48 1007.8
20260504233517 16 315 3.2 9.7 0.08 0.08 0.08 57 1008.0
20260504232517 16 90 3.2 6.4 0.08 0.08 0.08 55 1007.6
20260504231517 16 203 3.2 9.7 0.08 0.08 0.08 49 1007.8
20260504230517 15 113 16.1 25.7 0.08 0.08 0.08 51 1007.3
20260504225517 14 135 12.9 19.3 0.08 0.08 0.08 60 1007.0
20260504224517 15 135 19.3 30.6 0.05 0.05 0.05 50 1007.3
20260504223517 17 135 9.7 16.1 0.00 0.00 0.00 41 1007.9
20260504222517 17 113 20.9 37.0 0.00 0.00 0.00 37 1007.6
20260504221520 18 90 19.3 37.0 0.00 0.00 0.00 36 1007.9
20260504220517 19 68 17.7 30.6 0.00 0.00 0.00 35 1008.4
20260504215517 20 270 3.2 11.3 0.00 0.00 0.00 30 1008.8
20260504214517 20 270 4.8 12.9 0.00 0.00 0.00 29 1008.8
20260504213518 19 203 12.9 20.9 0.00 0.00 0.00 31 1009.1
20260504212517 19 68 3.2 11.3 0.00 0.00 0.00 31 1009.5
20260504211521 18 68 6.4 12.9 0.00 0.00 0.00 33 1009.4
20260504210517 19 45 6.4 14.5 0.00 0.00 0.00 32 1009.7
20260504205617 20 23 8.0 16.1 0.00 0.00 0.00 32 1009.7
20260504204517 20 68 3.2 8.0 0.00 0.00 0.00 30 1010.2
20260504203517 20 338 8.0 20.9 0.00 0.00 0.00 33 1010.3
20260504202517 19 45 6.4 16.1 0.00 0.00 0.00 35 1010.0
20260504201517 19 293 3.2 6.4 0.00 0.00 0.00 33 1010.0
20260504200516 18 113 4.8 14.5 0.00 0.00 0.00 31 1009.7
20260504195516 17 68 6.4 17.7 0.00 0.00 0.00 33 1009.7
20260504194519 17 203 9.7 17.7 0.00 0.00 0.00 35 1009.9
20260504193517 17 203 9.7 16.1 0.00 0.00 0.00 37 1010.1
20260504192517 17 203 14.5 19.3 0.00 0.00 0.00 38 1010.1
20260504191519 17 225 8.0 17.7 0.00 0.00 0.00 46 1010.4
20260504190516 17 180 8.0 12.9 0.00 0.00 0.00 38 1010.3
20260504185517 16 203 12.9 20.9 0.00 0.00 0.00 35 1010.0
20260504184519 15 203 14.5 19.3 0.00 0.00 0.00 47 1010.2
20260504183519 15 203 12.9 24.1 0.00 0.00 0.00 52 1010.2
20260504182516 15 225 8.0 17.7 0.00 0.00 0.00 53 1010.6
20260504181516 15 203 9.7 16.1 0.00 0.00 0.00 46 1010.6
20260504180518 15 225 8.0 16.1 0.00 0.00 0.00 45 1010.7
20260504175517 15 180 4.8 12.9 0.00 0.00 0.00 44 1010.6
20260504174517 15 180 6.4 11.3 0.00 0.00 0.00 44 1010.4
20260504173516 15 180 9.7 17.7 0.00 0.00 0.00 42 1010.4
20260504172536 16 180 9.7 16.1 0.00 0.00 0.00 43 1010.7
20260504171516 16 203 6.4 16.1 0.00 0.00 0.00 42 1010.9
20260504170517 16 45 3.2 6.4 0.00 0.00 0.00 40 1010.9
20260504150520 14 23 4.8 8.0 0.00 0.00 0.00 46 1011.6
20260504140516 15 270 1.6 6.4 0.00 0.00 0.00 46 1012.5
20260504130516 12 135 4.8 9.7 0.00 0.00 0.00 47 1012.3
20260504110518 12 68 4.8 8.0 0.00 0.00 0.00 45 1013.0